Hourly Data Report for November 20, 2017

All times are specified in Local Standard Time (LST). Add 1 hour to adjust for Daylight Saving Time where and when it is observed.

GIMLI CLIMATE
MANITOBA

50°38'00.000" N
97°03'00.000" W
230.10 m
5031042
71748
PGH

Download Data

Hourly Data (November 2017)
Hourly Data Report for November 20, 2017
Temp Definition
°C
Dew Point Temp Definition
°C
Rel Hum Definition
%
Wind Dir Definition
10's deg

Wind Spd Definition
km/h
Visibility Definition
km
Stn Press Definition
kPa
Hmdx Definition


Wind Chill Definition


Weather Definition


TIME
00:00 -7.0 -10.7 75 12 11   97.69   -12 LegendNANA
01:00 -6.9 -10.4 76 12 12   97.55   -12 LegendNANA
02:00 -6.2 -9.4 78 14 13   97.42   -12 LegendNANA
03:00 -6.5 -9.6 78 14 13   97.29   -12 LegendNANA
04:00 -6.6 -9.2 82 14 12   97.09   -12 LegendNANA
05:00 -6.4 -8.7 84 13 13   96.97   -12 LegendNANA
06:00 -6.2 -8.3 85 13 14   96.81   -12 LegendNANA
07:00 -5.4 -7.5 85 13 17   96.61   -11 LegendNANA
08:00 -4.4 -6.6 84 15 16   96.42   -10 LegendNANA
09:00 -4.0 -6.5 83 15 12   96.31   -9 LegendNANA
10:00 -3.2 -6.2 79 11 4   96.22   -5 LegendNANA
11:00 -2.0 -4.8 82 18 14   96.18   -7 LegendNANA
12:00 -1.7 -4.6 80 19 12   96.10   -6 LegendNANA
13:00 -1.0 -4.3 79 17 6   96.02   -3 LegendNANA
14:00 -0.5 -3.9 78 28 6   96.01   -3 LegendNANA
15:00 -0.9 -2.5 89 26 12   96.02   -5 LegendNANA
16:00 -2.2 -3.4 92 29 33   96.12   -10 LegendNANA
17:00 -3.9 -5.3 90 30 30   96.32   -12 LegendNANA
18:00 -4.6 -7.2 82 30 33   96.47   -13 LegendNANA
19:00 -5.4 -7.6 85 31 37   96.61   -14 LegendNANA
20:00 -6.3 -9.1 80 31 39   96.74   -16 LegendNANA
21:00 -7.8 -10.3 83 31 32   96.90   -17 LegendNANA
22:00 -9.2 -11.8 81 33 34   97.16   -19 LegendNANA
23:00 -9.3 -11.8 82 34 41   97.37   -20 LegendNANA

Notes on Data Quality.

Legend

  • E = Estimated
  • M = Missing
  • NA = Not Available
  • ‡ = Partner data that is not subject to review by the National Climate Archives
Date modified: